Location: Bratislava
(48.1500°N, 17.1170°E)
Time: 13:04:22
(UTC+01:00)

Envisat - Visible Passes

Search period start: 16 November 2018 00:00
Search period end: 26 November 2018 00:00
Orbit: 764 x 766 km, 98.2° (Epoch: 16 November)

Date Brightness Start Highest point End Pass type
(mag) Time Alt. Az. Time Alt. Az. Time Alt. Az.
16 Nov 6.0 06:19:22 10° NE 06:22:16 15° E 06:25:09 10° ESE visible
16 Nov 3.8 17:36:53 10° ESE 17:41:14 29° ENE 17:45:35 10° N visible
16 Nov 4.1 19:16:14 15° SSW 19:20:05 43° W 19:24:56 10° NNW visible
17 Nov 4.5 17:01:54 10° E 17:04:55 16° ENE 17:07:55 10° NNE visible
17 Nov 2.9 18:39:16 17° SSE 18:43:15 88° WSW 18:48:22 10° NNW visible
17 Nov 5.9 20:20:50 10° WSW 20:23:01 13° W 20:25:13 10° WNW visible
18 Nov 3.2 18:02:17 13° SE 18:06:36 46° ENE 18:11:27 10° N visible
18 Nov 4.9 19:42:30 14° SW 19:45:50 26° W 19:50:05 10° NW visible
19 Nov 6.2 06:09:01 10° ENE 06:10:55 12° E 06:12:49 10° ESE visible
19 Nov 4.0 17:26:06 10° ESE 17:30:08 25° ENE 17:34:12 10° N visible
19 Nov 3.6 19:05:30 20° S 19:08:51 53° W 19:13:50 10° NNW visible
20 Nov 4.6 16:51:32 10° E 16:53:52 13° NE 16:56:14 10° NNE visible
20 Nov 2.8 18:28:29 20° SSE 18:32:03 76° ENE 18:37:10 10° N visible
20 Nov 5.6 20:08:42 10° SW 20:11:41 16° W 20:14:45 10° NW visible
21 Nov 3.4 17:51:28 13° SE 17:55:28 38° ENE 18:00:09 10° N visible
21 Nov 4.6 19:31:40 19° SW 19:34:33 32° W 19:39:06 10° NNW visible
22 Nov 4.2 17:15:24 10° ESE 17:19:05 21° ENE 17:22:45 10° NNE visible
22 Nov 3.3 18:54:38 25° S 18:57:37 66° WSW 19:02:42 10° NNW visible
23 Nov 4.8 16:41:32 10° ENE 16:42:52 11° NE 16:44:11 10° NE visible
23 Nov 2.9 18:17:35 21° SE 18:20:54 62° ENE 18:25:56 10° N visible
23 Nov 5.3 19:57:47 14° SW 20:00:20 20° W 20:04:01 10° NW visible
24 Nov 5.9 06:22:19 10° NE 06:25:30 16° E 06:28:39 10° SE visible
24 Nov 3.7 17:40:30 13° ESE 17:44:22 32° ENE 17:48:49 10° N visible
24 Nov 4.2 19:20:42 23° SSW 19:23:17 39° W 19:28:04 10° NNW visible
25 Nov 4.4 17:04:48 10° E 17:08:01 17° ENE 17:11:14 10° NNE visible
25 Nov 3.0 18:43:38 28° S 18:46:25 81° WSW 18:51:32 10° NNW visible
25 Nov 5.9 20:24:35 10° WSW 20:26:15 11° W 20:27:57 10° WNW visible
